{"data":{"norad_id":65376,"intl_designator":"2025-190AB","name":"STARLINK-34249","alt_names":[],"object_type":"PAYLOAD","status":"ACTIVE","operator":null,"country":"US","launch_date":"2025-08-28","launch_site_code":"AFETR","launch_vehicle":null,"mission":null,"orbit_class":"UNKNOWN","rcs_meters":null,"size_class":null,"mass_kg":null,"dimensions":null,"purposes":["comms"],"wikipedia_slug":null,"has_3d_model":false,"image_url":null,"decayed_at":null,"tle_current":{"epoch":"2026-05-25T01:34:24.682080Z","epoch_age_seconds":59574,"freshness":"FRESH","line1":"1 65376U 25190AB  26145.06556345  .00013688  00000+0  41542-3 0  9990","line2":"2 65376  53.1589 173.0591 0001142  85.9960 274.1174 15.34406860 41874","mean_motion":15.3440686,"eccentricity":0.0001142,"inclination_deg":53.1589,"raan_deg":173.0591,"arg_perigee_deg":85.996,"mean_anomaly_deg":274.1174,"bstar":0.00041542,"rev_number":4187,"period_min":93.84733850838,"perigee_km":461.90162929042,"apogee_km":463.46407254437,"semimajor_km":6840.8198509174,"source":"CELESTRAK","updated_at":"2026-05-25T13:38:20.770740Z"}}}